* Astronomy

Members Login
Username 
 
Password 
    Remember Me  
Post Info TOPIC: Asteroid 2012 KL11


L

Posts: 131433
Date:
Asteroid 2012 KL11
Permalink  
 


Orbital elements:
2012 KL11                                                Earth MOID = 0.3526 AU
Epoch 2012 Mar. 14.0 TT = JDT 2456000.5                 MPC
M 358.00287              (2000.0)            P               Q
n   0.30943253     Peri.  307.19941     -0.90767144     +0.08478264
a   2.1648380      Node   241.23374     -0.02704597     -0.98916304
e   0.4226553      Incl.   27.96257     -0.41880912     -0.11986823
P   3.19           H   21.1           G   0.15           U   7

MPEC 2012 - K32



__________________
Page 1 of 1  sorted by
 
Quick Reply

Please log in to post quick replies.



Create your own FREE Forum
Report Abuse
Powered by ActiveBoard